TimeCDT,TemperatureF,Dew PointF,Humidity,Sea Level PressureIn,VisibilityMPH,Wind Direction,Wind SpeedMPH,Gust SpeedMPH,PrecipitationIn,Events,Conditions,WindDirDegrees,DateUTC
12:15 AM,30.2,28.4,93,30.33,4.0,North,8.1,-,N/A,Snow,Light Snow,10,2013-05-03 05:15:00
12:35 AM,30.2,28.4,93,30.33,3.0,North,6.9,-,N/A,Snow,Light Snow,360,2013-05-03 05:35:00
12:55 AM,30.2,28.4,93,30.32,3.0,North,11.5,18.4,N/A,Snow,Light Snow,10,2013-05-03 05:55:00
1:15 AM,30.2,28.4,93,30.30,2.5,NNE,11.5,16.1,N/A,Snow,Light Snow,20,2013-05-03 06:15:00
1:35 AM,30.2,28.4,93,30.30,2.5,NNE,9.2,18.4,N/A,Snow,Light Snow,20,2013-05-03 06:35:00
1:55 AM,30.2,28.4,93,30.29,4.0,North,9.2,-,N/A,,Overcast,10,2013-05-03 06:55:00
2:15 AM,28.4,28.4,100,30.28,4.0,North,11.5,16.1,N/A,,Overcast,10,2013-05-03 07:15:00
2:35 AM,28.4,28.4,100,30.28,3.0,North,9.2,16.1,N/A,Snow,Light Snow,10,2013-05-03 07:35:00
2:55 AM,28.4,28.4,100,30.28,3.0,North,9.2,18.4,N/A,,Overcast,10,2013-05-03 07:55:00
3:15 AM,28.4,28.4,100,30.28,2.5,NNE,8.1,-,N/A,Snow,Light Snow,20,2013-05-03 08:15:00
3:35 AM,28.4,28.4,100,30.27,3.0,NNE,9.2,-,N/A,Snow,Light Snow,20,2013-05-03 08:35:00
3:55 AM,28.4,26.6,93,30.27,3.0,NNE,6.9,17.3,N/A,Snow,Light Snow,20,2013-05-03 08:55:00
4:15 AM,28.4,28.4,100,30.26,3.0,North,9.2,-,N/A,Snow,Light Snow,10,2013-05-03 09:15:00
4:35 AM,28.4,26.6,93,30.26,3.0,North,8.1,-,N/A,Snow,Light Snow,10,2013-05-03 09:35:00
4:55 AM,28.4,26.6,93,30.26,4.0,North,10.4,-,N/A,Snow,Light Snow,10,2013-05-03 09:55:00
5:15 AM,28.4,26.6,93,30.26,3.0,NNE,8.1,-,N/A,Snow,Light Snow,20,2013-05-03 10:15:00
5:35 AM,28.4,28.4,100,30.26,3.0,North,8.1,-,N/A,Snow,Light Snow,10,2013-05-03 10:35:00
5:55 AM,28.4,26.6,93,30.25,10.0,North,11.5,-,N/A,,Overcast,10,2013-05-03 10:55:00
6:15 AM,28.4,26.6,93,30.26,3.0,NNE,9.2,-,N/A,Snow,Light Snow,20,2013-05-03 11:15:00
6:35 AM,28.4,28.4,100,30.25,2.0,NNE,8.1,-,N/A,Snow,Light Snow,30,2013-05-03 11:35:00
6:55 AM,28.4,28.4,100,30.25,1.2,NNE,8.1,-,N/A,Snow,Light Snow,20,2013-05-03 11:55:00
7:15 AM,28.4,28.4,100,30.25,2.5,NNE,8.1,-,N/A,Snow,Light Snow,30,2013-05-03 12:15:00
7:35 AM,30.2,28.4,93,30.24,2.5,NNE,8.1,17.3,N/A,Snow,Light Snow,20,2013-05-03 12:35:00
7:55 AM,30.2,28.4,93,30.24,2.5,NNE,6.9,-,N/A,Snow,Light Snow,20,2013-05-03 12:55:00
8:15 AM,30.2,28.4,93,30.23,1.8,NNE,9.2,-,N/A,Snow,Light Snow,20,2013-05-03 13:15:00
8:35 AM,30.2,28.4,93,30.23,4.0,NNE,9.2,17.3,N/A,Snow,Light Snow,20,2013-05-03 13:35:00
8:55 AM,30.2,28.4,93,30.22,4.0,NNE,12.7,-,N/A,Snow,Light Snow,20,2013-05-03 13:55:00
9:15 AM,30.2,28.4,93,30.23,3.0,NNE,6.9,-,N/A,Snow,Light Snow,20,2013-05-03 14:15:00
9:35 AM,30.2,28.4,93,30.22,3.0,NNE,5.8,-,N/A,Snow,Light Snow,20,2013-05-03 14:35:00
9:55 AM,30.2,28.4,93,30.22,2.5,NNE,6.9,-,N/A,Snow,Light Snow,30,2013-05-03 14:55:00
10:15 AM,30.2,28.4,93,30.23,2.0,North,8.1,-,N/A,Snow,Light Snow,10,2013-05-03 15:15:00
10:35 AM,30.2,28.4,93,30.22,2.5,NNE,6.9,-,N/A,Snow,Light Snow,30,2013-05-03 15:35:00
10:55 AM,30.2,28.4,93,30.22,1.8,NNE,8.1,-,N/A,Snow,Light Snow,30,2013-05-03 15:55:00
11:15 AM,30.2,28.4,93,30.21,1.2,North,9.2,-,N/A,Snow,Light Snow,10,2013-05-03 16:15:00
11:35 AM,32.0,28.4,87,30.21,3.0,NNE,9.2,-,N/A,Snow,Light Snow,20,2013-05-03 16:35:00
11:55 AM,32.0,30.2,93,30.21,2.5,North,9.2,-,N/A,Snow,Light Snow,10,2013-05-03 16:55:00
12:15 PM,32.0,28.4,87,30.21,3.0,NNE,8.1,-,N/A,,Overcast,20,2013-05-03 17:15:00
12:55 PM,32.0,30.2,93,30.20,5.0,NNE,5.8,-,N/A,,Overcast,30,2013-05-03 17:55:00
1:15 PM,32.0,30.2,93,30.19,10.0,NNE,8.1,17.3,N/A,,Overcast,20,2013-05-03 18:15:00
1:35 PM,32.0,30.2,93,30.19,4.0,NNE,11.5,20.7,N/A,,Overcast,30,2013-05-03 18:35:00
1:55 PM,32.0,30.2,93,30.19,7.0,NNE,8.1,17.3,N/A,,Overcast,30,2013-05-03 18:55:00
2:15 PM,32.0,30.2,93,30.18,5.0,North,11.5,17.3,N/A,,Overcast,10,2013-05-03 19:15:00
2:35 PM,32.0,30.2,93,30.18,10.0,North,11.5,16.1,N/A,,Overcast,10,2013-05-03 19:35:00
2:55 PM,32.0,30.2,93,30.18,7.0,North,8.1,16.1,N/A,,Overcast,10,2013-05-03 19:55:00
3:15 PM,32.0,30.2,93,30.17,5.0,NNE,11.5,-,N/A,,Overcast,30,2013-05-03 20:15:00
3:35 PM,32.0,30.2,93,30.17,7.0,NNE,9.2,-,N/A,,Overcast,30,2013-05-03 20:35:00
3:55 PM,32.0,30.2,93,30.17,10.0,NE,8.1,-,N/A,,Overcast,40,2013-05-03 20:55:00
4:15 PM,32.0,32.0,100,30.16,10.0,NNE,10.4,-,N/A,,Overcast,30,2013-05-03 21:15:00
4:35 PM,32.0,32.0,100,30.16,7.0,NNE,8.1,-,N/A,,Overcast,30,2013-05-03 21:35:00
4:55 PM,32.0,32.0,100,30.17,7.0,NNE,8.1,-,N/A,,Overcast,30,2013-05-03 21:55:00
5:15 PM,32.0,32.0,100,30.17,5.0,NNE,8.1,-,N/A,,Overcast,30,2013-05-03 22:15:00
5:35 PM,32.0,32.0,100,30.17,5.0,NE,8.1,-,N/A,,Overcast,40,2013-05-03 22:35:00
5:55 PM,32.0,32.0,100,30.17,7.0,NE,5.8,-,N/A,,Overcast,40,2013-05-03 22:55:00
6:15 PM,32.0,32.0,100,30.17,7.0,NNE,5.8,-,N/A,,Overcast,20,2013-05-03 23:15:00
6:35 PM,32.0,32.0,100,30.17,10.0,NNE,8.1,-,N/A,,Overcast,30,2013-05-03 23:35:00
7:15 PM,32.0,32.0,100,30.17,7.0,NNE,4.6,-,N/A,,Overcast,20,2013-05-04 00:15:00
7:35 PM,32.0,32.0,100,30.17,5.0,NNE,5.8,-,N/A,,Overcast,20,2013-05-04 00:35:00
7:55 PM,32.0,32.0,100,30.18,7.0,NNE,5.8,-,N/A,,Overcast,30,2013-05-04 00:55:00
8:15 PM,32.0,32.0,100,30.17,10.0,NNE,4.6,-,N/A,,Overcast,30,2013-05-04 01:15:00
8:35 PM,32.0,32.0,100,30.17,7.0,NNE,6.9,-,N/A,,Overcast,20,2013-05-04 01:35:00
8:55 PM,32.0,32.0,100,30.17,10.0,NNE,5.8,-,N/A,,Overcast,30,2013-05-04 01:55:00
9:15 PM,32.0,32.0,100,30.17,10.0,NNE,6.9,-,N/A,,Overcast,30,2013-05-04 02:15:00
9:35 PM,32.0,32.0,100,30.16,10.0,NNE,5.8,-,N/A,,Overcast,30,2013-05-04 02:35:00
9:55 PM,32.0,32.0,100,30.17,10.0,NNE,3.5,-,N/A,,Overcast,20,2013-05-04 02:55:00
10:15 PM,32.0,32.0,100,30.17,10.0,NNE,4.6,-,N/A,,Overcast,30,2013-05-04 03:15:00
10:35 PM,32.0,32.0,100,30.17,10.0,NNE,4.6,-,N/A,,Overcast,30,2013-05-04 03:35:00
10:55 PM,32.0,32.0,100,30.17,10.0,NNE,4.6,-,N/A,,Overcast,20,2013-05-04 03:55:00
11:15 PM,32.0,32.0,100,30.16,10.0,NNE,5.8,-,N/A,,Overcast,20,2013-05-04 04:15:00
11:35 PM,32.0,32.0,100,30.16,10.0,NNE,6.9,-,N/A,,Overcast,30,2013-05-04 04:35:00
11:55 PM,32.0,32.0,100,30.15,10.0,NNE,4.6,-,N/A,,Overcast,20,2013-05-04 04:55:00